Location: Pedimozza
(42.0500°N, 9.3500°E)
Time: 10:55:46
(UTC+00:00)

Unknown - Pass Details

Date: 19 August 2019
Orbit: 548 x 551 km, 53.0° (Epoch: 21 September)

Event Time Altitude Azimuth Distance (km) Brightness Sun altitude
Rises 19:59:03 0° 306° (NW) 2,723 8.9 -17.5°
Reaches altitude 10° 20:01:17 10° 304° (NW) 1,827 7.6 -17.9°
Maximum altitude 20:05:26 75° 220° (SW) 574 3.6 -18.5°
Enters shadow 20:06:35 45° 147° (SSE) 752 3.8 -18.6°
